Location: Feigenhofen
(48.4939°N, 10.7793°E)
Time: 16:46:28
(UTC+00:00)

USA 306 - Pass Details

Date: 26 May 2022
Orbit: 545 x 556 km, 54.0° (Epoch: 20 June)

Event Time Altitude Azimuth Distance (km) Brightness Sun altitude
Exits shadow 01:42:37 10° 263° (W) 1,855 5.1 -12.9°
Reaches altitude 10° 01:42:40 10° 263° (W) 1,836 5.1 -12.9°
Maximum altitude 01:46:46 53° 342° (NNW) 687 3.5 -12.5°
Drops below altitude 10° 01:50:53 10° 60° (ENE) 1,851 6.7 -12.1°
Sets 01:53:11 0° 65° (ENE) 2,751 7.6 -11.8°
